Погода в Хамидие

Россия / Кабардино-Балкарская Республика     43°40′15″N   44°22′18″E
темп.,
°C
ветер,
м/с
пор.,
м/с
влажн.,
%
обл.,
%
осадки,
мм/ч
давл.,
гПа
погр.,
м
8 марта, пн
пн800:000вюв24470 0.0 102286
03:00−1в225017 0.0 102245
06:00−1вюв115089 0.0 102221
09:00+2св004092 0.0 1020347
12:00+5всв333588 0.0 10181107
15:00+6всв333594 0.0 10171295
18:00+4всв224796 0.0 101861
21:00+3юв115698 0.0 101922
9 марта, вт
вт900:00+2в016689 0.0 101922
03:00+1з126791 0.0 101822
06:000зюз117195 0.0 101822
09:00+3ююз226093 0.0 1018328
12:00+7вюв124315 0.0 10161293
15:00+8св11398 0.0 10151436
18:00+6св11482 0.0 101728
21:00+3ссз6108350 0.0 1020535
10 марта, ср
ср1000:00+3ссз4777100 0.0 1022691
03:00+2сз3784100 0.1 1023579
06:000сз4765100 0.3 1025491
09:00+2ссз465788 0.3 1025990
12:00+4ссз345072 0.0 10231287
15:00+5ссв334985 0.0 10221243
18:00+3всв3454100 0.0 1022976
21:00+2в4753100 0.0 1021651
11 марта, чт
чт1100:00+1в5952100 0.0 1020760
03:000в5867100 0.0 1019777
06:00−3всв5893100 0.8 1018545
09:00−2всв61092100 2.6 1018722
12:00−1всв81192100 1.6 1016856
15:00−3всв81292100 3.3 1017872
18:00−5всв71194100 2.1 1020797
21:00−6всв61095100 4.3 1022671
12 марта, пт
пт1200:00−6всв5895100 1.3 1023600
03:00−6всв5995100 2.3 1025572
06:00−7всв5895100 0.8 1028532
09:00−7всв5891100 1.1 1029563
12:00−5всв4680100 0.1 1029732
15:00−5всв567983 0.1 1028728
18:00−8в34863 0.0 103060
21:00−10вюв33872 0.0 103232